Wind_Speed
35 35 34 31 31 31 31 30 26 25 23 22 22 22 22 22 23 24 26 27 27 27 28 28 27 28 27 27 28 30 31 33 34 37 38 37 36 37 34 32 31 31 31
37 37 37 34 31 27 29 28 30 24 25 25 25 26 26 26 26 27 28 29 29 29 29 28 29 29 30 31 32 33 35 36 37 38 39 38 35 35 29 27 26 26 27
39 37 36 34 31 26 25 24 27 28 29 27 26 25 26 26 27 28 30 31 31 31 31 31 32 34 35 35 36 37 38 39 36 35 37 38 36 31 29 24 25 26 26
42 39 36 34 32 28 26 24 23 23 25 25 26 27 28 28 29 30 32 32 33 32 33 33 34 35 37 37 37 38 38 37 36 35 34 33 32 30 31 27 23 25 26
47 41 34 33 35 30 29 27 25 25 24 24 25 27 28 29 30 31 32 32 33 33 34 35 36 37 37 37 36 36 36 35 34 32 32 31 30 30 31 33 30 27 27
51 38 34 34 35 31 30 29 28 29 30 30 30 30 30 30 30 31 33 34 35 36 36 36 36 36 36 35 34 33 32 32 31 32 31 32 31 31 31 33 33 33 31
42 40 39 37 37 32 29 29 32 32 33 32 30 31 30 31 32 33 34 35 36 36 35 34 34 34 33 32 32 32 32 33 33 33 33 32 33 33 34 34 33 33 32
30 26 50 37 37 36 33 30 31 32 31 30 29 30 32 34 35 35 35 36 36 35 34 33 33 32 32 32 32 32 33 34 34 34 34 35 35 34 33 33 32 32 32
23 29 29 34 41 43 39 33 32 30 31 33 35 36 36 37 37 37 36 36 35 35 34 34 33 32 32 32 32 33 34 35 35 35 35 35 33 31 30 29 29 29 31
23 25 28 35 39 40 39 40 40 39 40 39 38 38 39 39 38 37 36 35 35 35 34 33 32 32 32 32 33 34 34 35 34 34 32 30 27 26 26 25 26 26 27
18 25 30 32 32 34 39 41 41 41 40 39 39 38 37 37 36 35 34 33 34 34 33 33 33 33 33 33 33 33 31 30 28 27 24 22 23 23 22 22 23 22 20
9 14 29 24 25 29 36 37 37 37 37 36 36 35 34 32 31 31 32 32 33 33 33 33 33 33 33 32 31 29 28 26 24 22 21 21 20 20 20 20 18 16 14
8 8 17 21 25 26 29 30 30 31 32 32 31 30 29 29 30 31 32 33 33 33 33 33 32 31 31 30 28 27 25 24 23 22 21 19 18 18 16 13 10 9 7
14 9 9 14 18 20 22 24 26 27 26 26 26 28 29 30 31 31 32 33 33 32 32 30 30 29 28 27 25 24 22 22 21 20 18 17 15 10 5 5 7 8 9
19 12 10 13 17 19 20 22 22 23 23 23 25 26 29 30 31 31 31 31 31 30 29 28 26 24 24 23 22 21 20 19 18 16 15 11 7 6 6 7 9 10 12
24 19 19 17 20 20 20 21 21 21 21 22 25 27 28 29 29 29 30 29 29 27 26 24 23 22 22 21 20 18 17 15 15 13 12 10 7 7 8 9 11 13 14
26 27 24 24 23 21 20 19 20 21 21 23 25 26 27 26 26 26 26 26 25 24 22 22 22 21 19 19 16 15 14 13 13 12 10 9 8 8 9 11 13 15 16
22 23 27 28 26 24 23 21 20 21 22 24 25 26 25 26 26 26 24 24 22 21 20 20 18 18 17 16 14 14 14 14 13 11 10 9 9 10 12 13 15 15 16
18 16 22 25 26 24 23 20 20 21 22 23 24 25 26 26 27 25 24 23 22 21 20 19 17 16 16 16 15 16 15 13 12 11 10 10 11 12 13 14 15 16 17
23 20 24 27 25 20 19 20 20 21 21 24 24 24 25 26 25 24 24 23 22 20 19 19 17 17 16 17 18 16 13 13 12 11 11 11 12 13 14 15 16 17 17
24 25 25 26 22 20 20 20 21 21 24 23 22 23 23 23 23 22 23 23 23 21 19 18 17 16 17 17 16 15 14 12 12 13 12 12 13 14 14 15 16 17 17
24 27 26 26 24 22 21 22 23 24 22 21 21 21 21 21 21 20 19 21 20 20 18 18 18 18 17 16 15 14 13 13 14 13 13 13 14 14 15 16 17 17 17
17 21 24 23 22 21 20 19 19 18 18 18 18 17 17 17 16 16 16 17 18 18 17 18 17 16 16 15 14 14 14 14 14 14 14 15 15 16 16 17 18 18 18
12 15 19 20 21 22 19 19 19 15 14 15 15 14 13 14 14 14 13 15 16 16 17 17 17 16 16 16 16 16 15 16 16 16 16 17 18 18 18 19 19 19 20
13 16 20 22 23 24 22 17 17 17 13 13 14 13 11 10 11 12 13 14 15 16 17 17 16 17 17 18 17 17 17 18 17 18 19 20 20 20 21 21 21 21 22
13 17 21 26 25 22 20 18 19 18 17 15 14 13 11 9 9 10 12 13 14 15 17 17 18 18 19 19 20 20 20 20 20 21 22 22 22 22 23 24 24 24 24
Wind_Direction
213 212 210 209 207 208 208 211 210 218 219 219 221 226 231 236 242 248 254 259 262 264 267 268 266 268 271 274 277 279 281 283 285 287 289 288 289 288 290 287 286 285 282
213 213 211 209 211 213 214 215 218 220 229 232 234 237 242 246 250 253 256 259 262 265 266 267 267 269 270 274 276 277 280 283 286 288 290 291 291 293 290 283 282 279 279
210 210 209 209 210 210 217 216 215 219 225 229 238 244 248 251 253 256 259 263 266 268 269 269 270 270 273 274 275 277 280 284 285 287 288 292 293 294 289 291 292 289 285
209 207 209 208 207 206 211 217 223 229 236 242 245 249 252 254 255 258 261 264 267 269 270 271 271 271 272 273 274 277 281 284 286 286 286 287 290 292 292 293 287 287 291
209 204 205 214 213 211 217 223 233 241 246 248 251 254 255 257 258 260 262 265 267 269 271 273 274 273 273 273 275 277 279 281 282 283 283 283 284 288 292 295 297 294 291
210 206 208 213 217 220 225 234 242 250 253 255 256 257 257 259 262 264 267 268 270 272 273 274 274 274 274 275 277 277 277 278 278 280 282 285 286 287 289 290 292 293 294
212 211 222 223 223 228 236 242 243 246 252 256 255 255 258 264 270 273 274 274 274 274 273 274 274 274 275 276 275 275 276 277 278 280 281 282 284 286 286 287 291 295 295
230 247 225 227 228 236 245 247 243 240 241 246 254 262 267 271 274 275 275 274 273 273 273 273 273 273 273 274 275 275 276 277 279 280 280 281 282 283 286 288 290 292 292
222 226 219 227 235 240 241 242 239 241 251 258 260 264 267 270 273 275 275 273 272 271 271 272 273 274 275 275 275 276 277 278 278 279 278 279 280 282 282 283 285 285 289
230 227 224 229 233 238 238 238 243 250 256 257 259 263 266 269 271 271 270 270 270 271 272 274 275 275 275 276 277 278 278 277 277 277 277 277 279 279 281 282 283 285 288
237 234 230 231 234 230 231 237 242 246 249 253 259 263 267 267 266 266 266 267 268 270 272 273 274 276 277 278 278 277 276 275 274 274 275 274 276 278 281 283 285 288 290
279 252 228 230 233 232 227 232 237 243 250 254 256 258 260 262 263 264 265 266 267 269 271 272 274 275 276 277 276 276 275 275 275 273 272 274 276 278 279 283 287 289 290
343 261 235 232 228 229 229 233 238 244 248 252 256 259 261 263 265 267 268 269 269 270 271 272 273 275 275 274 273 271 269 269 268 267 268 269 270 274 276 279 284 290 296
292 290 257 232 228 226 228 235 242 246 248 252 256 259 263 266 267 269 271 271 270 269 268 269 271 271 270 269 268 266 264 261 258 260 259 262 265 259 257 278 288 292 298
263 249 257 252 236 231 234 239 243 247 254 261 266 269 271 272 273 273 272 271 270 269 268 267 266 266 267 266 262 259 256 252 248 247 250 239 221 252 267 280 291 295 298
247 241 236 248 247 237 239 240 243 249 255 262 269 272 272 273 274 272 271 269 266 265 263 261 259 261 262 260 254 249 243 239 237 234 210 220 229 249 267 282 290 293 296
239 240 238 235 240 241 237 239 247 256 263 268 270 271 271 273 275 273 270 265 262 259 257 257 258 261 256 249 244 240 232 226 209 206 212 226 245 264 279 288 291 293 294
234 234 235 217 226 227 231 243 255 264 268 273 275 273 272 273 274 273 271 264 258 255 253 254 254 254 248 238 229 223 213 203 208 214 225 240 259 275 284 289 291 294 297
223 232 221 212 219 222 235 249 263 268 272 276 277 276 275 275 273 270 267 258 253 251 252 250 247 241 234 229 217 207 202 208 213 224 239 257 270 279 286 289 293 296 297
222 219 215 212 217 231 241 255 266 273 279 279 279 278 274 272 269 267 262 254 251 251 248 246 241 236 224 212 202 203 208 215 224 237 249 263 275 282 286 292 296 296 295
220 218 220 219 223 234 250 263 269 274 275 280 278 277 277 271 267 265 261 251 247 246 246 243 234 217 205 201 206 212 217 226 236 246 258 268 275 282 289 294 295 295 300
216 217 218 222 231 246 259 266 271 274 276 276 276 275 274 269 263 263 261 242 241 240 237 228 213 203 202 209 215 221 229 236 245 255 263 269 276 283 288 291 294 298 302
225 216 218 225 234 249 257 264 273 272 272 271 273 275 274 268 263 258 248 238 236 232 219 209 206 207 213 220 226 233 240 249 256 260 265 271 275 280 285 288 291 296 300
204 205 214 224 238 239 255 262 267 267 276 271 274 279 280 269 258 248 236 228 218 210 208 212 216 220 225 230 234 239 245 251 257 264 270 273 276 280 283 286 290 295 298
227 233 235 234 239 242 247 264 274 256 274 279 274 275 277 270 254 240 224 208 211 217 221 225 229 234 237 240 244 247 251 256 261 265 268 272 276 279 283 285 288 290 292
245 242 249 244 238 252 259 254 260 262 268 274 268 266 267 262 248 232 221 223 228 230 232 236 238 242 247 248 250 252 254 258 260 264 267 270 274 278 281 283 286 288 290
Height
3141 3142 3146 3149 3151 3154 3158 3162 3165 3169 3171 3173 3175 3177 3179 3180 3181 3181 3182 3182 3183 3183 3182 3182 3181 3180 3179 3179 3178 3176 3175 3174 3173 3169 3169 3167 3166 3164 3162 3160 3158 3156 3154
3134 3136 3140 3144 3146 3149 3152 3156 3160 3163 3166 3168 3170 3172 3174 3175 3176 3176 3176 3176 3177 3177 3177 3176 3175 3174 3173 3173 3171 3170 3168 3168 3166 3164 3161 3159 3160 3156 3156 3154 3152 3150 3148
3127 3131 3134 3137 3141 3145 3149 3152 3155 3158 3161 3164 3165 3166 3168 3169 3170 3169 3169 3170 3170 3170 3170 3170 3169 3168 3166 3166 3164 3163 3161 3159 3159 3158 3155 3151 3149 3149 3147 3147 3146 3143 3142
3121 3124 3128 3132 3136 3139 3143 3147 3150 3152 3155 3157 3158 3160 3161 3162 3163 3163 3163 3163 3163 3163 3163 3162 3162 3161 3159 3158 3157 3155 3154 3152 3152 3150 3149 3146 3143 3141 3139 3140 3141 3138 3135
3113 3117 3122 3126 3130 3133 3137 3141 3144 3147 3149 3151 3152 3153 3153 3154 3155 3156 3156 3155 3155 3155 3155 3154 3154 3152 3151 3150 3150 3148 3147 3145 3144 3143 3141 3140 3138 3136 3133 3130 3131 3130 3129
3107 3112 3116 3120 3125 3127 3131 3134 3137 3140 3142 3144 3144 3145 3146 3147 3147 3148 3148 3148 3147 3147 3146 3145 3145 3144 3143 3142 3141 3140 3139 3138 3137 3136 3134 3132 3131 3129 3128 3125 3124 3122 3120
3096 3102 3109 3115 3119 3123 3124 3128 3131 3134 3136 3136 3137 3138 3139 3140 3140 3141 3140 3139 3139 3138 3138 3137 3136 3135 3135 3134 3134 3133 3132 3131 3130 3129 3127 3126 3124 3122 3121 3119 3117 3114 3112
3094 3099 3102 3107 3112 3115 3118 3121 3124 3126 3128 3130 3131 3132 3132 3132 3132 3132 3132 3132 3131 3130 3129 3129 3129 3128 3128 3127 3127 3126 3125 3123 3122 3121 3120 3118 3117 3116 3113 3111 3110 3107 3106
3089 3092 3097 3102 3104 3107 3111 3114 3117 3120 3121 3123 3124 3125 3125 3125 3124 3124 3124 3124 3123 3123 3122 3121 3121 3121 3120 3119 3118 3117 3116 3115 3113 3113 3112 3111 3109 3108 3106 3104 3104 3102 3099
3084 3086 3089 3093 3096 3099 3102 3106 3110 3112 3115 3116 3116 3116 3116 3116 3116 3116 3116 3116 3115 3115 3114 3114 3113 3112 3111 3110 3109 3108 3108 3106 3105 3104 3103 3103 3101 3100 3099 3098 3098 3096 3094
3078 3080 3082 3084 3087 3090 3093 3098 3101 3104 3106 3107 3107 3108 3108 3108 3107 3108 3108 3107 3107 3106 3106 3106 3105 3104 3103 3102 3101 3099 3099 3098 3097 3096 3095 3095 3095 3094 3093 3093 3092 3090 3087
3074 3073 3075 3079 3081 3084 3088 3090 3093 3096 3098 3098 3099 3099 3099 3099 3099 3099 3099 3099 3098 3098 3098 3097 3097 3096 3094 3093 3092 3091 3091 3091 3090 3090 3090 3090 3090 3089 3088 3087 3086 3085 3083
3072 3072 3073 3074 3076 3078 3081 3085 3088 3089 3090 3090 3091 3091 3091 3091 3091 3091 3091 3090 3089 3089 3088 3088 3087 3087 3086 3085 3084 3083 3083 3084 3084 3085 3085 3085 3084 3084 3082 3082 3081 3080 3080
3069 3069 3068 3069 3071 3074 3077 3080 3082 3083 3083 3084 3085 3085 3084 3084 3083 3082 3082 3081 3081 3080 3079 3079 3079 3078 3078 3077 3077 3077 3077 3078 3078 3080 3080 3080 3080 3079 3078 3078 3078 3078 3077
3064 3066 3066 3067 3068 3070 3073 3074 3076 3077 3077 3078 3078 3078 3077 3076 3075 3074 3073 3072 3072 3072 3072 3071 3071 3071 3072 3071 3071 3071 3071 3072 3073 3074 3075 3076 3076 3076 3076 3076 3075 3075 3074
3057 3059 3061 3063 3065 3066 3068 3069 3070 3072 3072 3072 3072 3071 3071 3070 3068 3067 3066 3065 3065 3064 3065 3065 3065 3065 3065 3066 3065 3065 3066 3066 3068 3069 3071 3073 3073 3073 3073 3073 3071 3072 3070
3049 3052 3054 3058 3060 3062 3063 3064 3065 3066 3066 3066 3066 3064 3064 3062 3061 3061 3059 3058 3058 3059 3058 3059 3059 3059 3060 3060 3060 3060 3061 3062 3064 3067 3068 3070 3071 3070 3070 3069 3068 3067 3065
3041 3044 3047 3050 3054 3056 3058 3059 3060 3060 3060 3059 3058 3057 3055 3055 3054 3054 3052 3052 3052 3053 3053 3054 3053 3054 3055 3055 3055 3056 3058 3060 3062 3064 3066 3066 3066 3066 3066 3065 3064 3062 3061
3037 3039 3041 3046 3049 3051 3053 3054 3055 3055 3054 3053 3051 3050 3048 3047 3047 3046 3046 3046 3046 3047 3047 3048 3049 3049 3051 3051 3052 3054 3056 3058 3059 3061 3062 3062 3062 3062 3061 3061 3059 3057 3056
3032 3034 3037 3040 3043 3046 3048 3048 3048 3048 3047 3045 3044 3043 3042 3040 3039 3038 3039 3039 3040 3041 3042 3043 3043 3045 3046 3047 3050 3051 3053 3055 3056 3058 3058 3058 3058 3057 3057 3055 3054 3053 3051
3026 3029 3033 3036 3039 3041 3042 3043 3043 3042 3040 3039 3037 3036 3034 3033 3032 3032 3032 3033 3034 3036 3036 3038 3039 3040 3043 3045 3047 3049 3050 3051 3053 3054 3054 3053 3053 3053 3051 3050 3049 3048 3045
3021 3024 3028 3032 3035 3036 3037 3037 3037 3035 3034 3033 3032 3030 3029 3028 3026 3026 3025 3026 3028 3030 3031 3033 3035 3037 3039 3042 3044 3045 3046 3048 3049 3049 3048 3049 3049 3048 3047 3046 3044 3042 3040
3018 3021 3025 3028 3030 3032 3032 3032 3031 3030 3029 3028 3027 3026 3023 3022 3021 3021 3020 3021 3023 3025 3027 3030 3033 3035 3036 3039 3040 3041 3043 3044 3044 3044 3044 3044 3043 3043 3042 3040 3039 3037 3035
3017 3019 3022 3024 3025 3026 3027 3026 3027 3026 3025 3024 3023 3021 3019 3017 3016 3016 3017 3018 3020 3022 3025 3027 3029 3031 3033 3034 3036 3037 3037 3038 3038 3039 3039 3038 3038 3037 3036 3034 3032 3031 3029
3015 3017 3018 3019 3020 3021 3021 3022 3021 3021 3021 3019 3018 3017 3015 3014 3013 3013 3014 3015 3017 3020 3022 3024 3026 3027 3029 3030 3031 3031 3032 3032 3032 3032 3033 3033 3032 3031 3030 3028 3026 3025 3023
3012 3013 3013 3013 3013 3015 3015 3016 3017 3016 3016 3015 3014 3013 3013 3011 3012 3012 3013 3014 3015 3017 3019 3020 3022 3023 3024 3025 3026 3026 3026 3026 3026 3026 3026 3026 3025 3024 3023 3021 3020 3018 3016